When you browse on this site, cookies collect data to enhance your experience and personalize the content and advertising you see.
Visit our Privacy Policy to learn more. By continuing to use the site, you agree to this use of cookies and data.
  • In Hungary
  • List of Countries
  • For 7 days
  • Water Temperature
  • Satellite Maps
  • Weather Map
  • News
  • Weather Widgets
  • user-avatar
    Login

    Hourly Weather Carmona

    Today, 27 June, Thursday

    Time Temperature Precipitation Wind Pressure Humidity
    00:00 +19°C° 0 mm 2 mps 749 mmHg 89%
    01:00 +18°C° 0 mm 2 mps 749 mmHg 90%
    02:00 +19°C° 0 mm 1 mps 749 mmHg 92%
    03:00 +16°C° 0 mm 0 mps 748 mmHg 93%
    04:00 +17°C° 0 mm 0 mps 748 mmHg 90%
    05:00 +17°C° 0 mm 0 mps 749 mmHg 88%
    06:00 +18°C° 0 mm 0 mps 749 mmHg 86%
    07:00 +22°C° 0 mm 1 mps 749 mmHg 74%
    08:00 +25°C° 0 mm 1 mps 749 mmHg 62%
    09:00 +28°C° 0 mm 1 mps 749 mmHg 51%
    10:00 +30°C° 0 mm 2 mps 749 mmHg 45%
    11:00 +32°C° 0 mm 2 mps 749 mmHg 39%
    12:00 +35°C° 0 mm 3 mps 749 mmHg 34%
    13:00 +36°C° 0 mm 4 mps 749 mmHg 31%
    14:00 +37°C° 0 mm 4 mps 748 mmHg 29%
    15:00 +39°C° 0 mm 5 mps 748 mmHg 27%
    16:00 +37°C° 0 mm 5 mps 747 mmHg 28%
    17:00 +36°C° 0 mm 5 mps 747 mmHg 30%
    18:00 +35°C° 0 mm 6 mps 747 mmHg 31%
    19:00 +30°C° 0 mm 5 mps 747 mmHg 37%
    20:00 +27°C° 0 mm 5 mps 748 mmHg 43%
    21:00 +23°C° 0 mm 4 mps 748 mmHg 49%
    22:00 +22°C° 0 mm 3 mps 748 mmHg 53%
    23:00 +21°C° 0 mm 2 mps 749 mmHg 57%

    Tomorrow, 28 June, Friday

    Time Temperature Precipitation Wind Pressure Humidity
    00:00 +20°C° 0 mm 2 mps 749 mmHg 61%
    01:00 +20°C° 0 mm 1 mps 748 mmHg 62%
    02:00 +20°C° 0 mm 1 mps 748 mmHg 63%
    03:00 +17°C° 0 mm 0 mps 748 mmHg 64%
    04:00 +18°C° 0 mm 0 mps 748 mmHg 62%
    05:00 +20°C° 0 mm 1 mps 748 mmHg 59%
    06:00 +20°C° 0 mm 1 mps 748 mmHg 56%
    07:00 +24°C° 0 mm 1 mps 748 mmHg 48%
    08:00 +27°C° 0 mm 1 mps 748 mmHg 39%
    09:00 +30°C° 0 mm 1 mps 748 mmHg 30%
    10:00 +32°C° 0 mm 1 mps 747 mmHg 27%
    11:00 +36°C° 0 mm 2 mps 747 mmHg 24%
    12:00 +38°C° 0 mm 2 mps 747 mmHg 21%
    13:00 +39°C° 0 mm 2 mps 747 mmHg 20%
    14:00 +40°C° 0 mm 3 mps 746 mmHg 18%
    15:00 +42°C° 0 mm 4 mps 746 mmHg 17%
    16:00 +42°C° 0 mm 4 mps 745 mmHg 19%
    17:00 +41°C° 0 mm 4 mps 745 mmHg 20%
    18:00 +40°C° 0 mm 4 mps 745 mmHg 22%
    19:00 +35°C° 0 mm 4 mps 745 mmHg 33%
    20:00 +30°C° 0 mm 4 mps 746 mmHg 44%
    21:00 +26°C° 0 mm 4 mps 746 mmHg 55%
    22:00 +25°C° 0 mm 3 mps 746 mmHg 59%
    23:00 +24°C° 0 mm 3 mps 747 mmHg 64%

    Day after tomorrow, 29 June, Saturday

    Time Temperature Precipitation Wind Pressure Humidity
    00:00 +23°C° 0 mm 2 mps 747 mmHg 68%
    01:00 +21°C° 0 mm 2 mps 747 mmHg 71%
    02:00 +21°C° 0 mm 1 mps 747 mmHg 74%
    03:00 +21°C° 0 mm 1 mps 747 mmHg 77%
    04:00 +21°C° 0 mm 1 mps 747 mmHg 75%
    05:00 +21°C° 0 mm 1 mps 747 mmHg 73%
    06:00 +20°C° 0 mm 2 mps 747 mmHg 71%
    07:00 +25°C° 0 mm 2 mps 747 mmHg 59%
    08:00 +28°C° 0 mm 2 mps 747 mmHg 47%
    09:00 +32°C° 0 mm 2 mps 747 mmHg 35%
    10:00 +35°C° 0 mm 2 mps 747 mmHg 29%
    11:00 +38°C° 0 mm 2 mps 747 mmHg 23%
    12:00 +41°C° 0 mm 2 mps 747 mmHg 17%
    13:00 +43°C° 0 mm 3 mps 746 mmHg 15%
    14:00 +44°C° 0 mm 4 mps 746 mmHg 14%
    15:00 +45°C° 0 mm 4 mps 745 mmHg 12%
    16:00 +45°C° 0 mm 5 mps 745 mmHg 16%
    17:00 +42°C° 0 mm 6 mps 745 mmHg 19%
    18:00 +40°C° 0 mm 7 mps 745 mmHg 22%
    19:00 +35°C° 0 mm 6 mps 745 mmHg 33%
    20:00 +30°C° 0 mm 5 mps 746 mmHg 45%
    21:00 +26°C° 0 mm 3 mps 746 mmHg 56%
    22:00 +25°C° 0 mm 3 mps 747 mmHg 61%
    23:00 +22°C° 0 mm 3 mps 747 mmHg 66%

    30 June, Sunday

    Time Temperature Precipitation Wind Pressure Humidity
    00:00 +21°C° 0 mm 2 mps 747 mmHg 72%
    01:00 +22°C° 0 mm 1 mps 747 mmHg 74%
    02:00 +21°C° 0 mm 1 mps 747 mmHg 76%
    03:00 +18°C° 0 mm 0 mps 747 mmHg 78%
    04:00 +18°C° 0 mm 0 mps 748 mmHg 76%
    05:00 +19°C° 0 mm 0 mps 748 mmHg 74%
    06:00 +19°C° 0 mm 0 mps 748 mmHg 73%
    07:00 +24°C° 0 mm 1 mps 748 mmHg 62%
    08:00 +27°C° 0 mm 1 mps 749 mmHg 51%
    09:00 +30°C° 0 mm 1 mps 749 mmHg 40%
    10:00 +32°C° 0 mm 2 mps 749 mmHg 33%
    11:00 +36°C° 0 mm 2 mps 749 mmHg 26%
    12:00 +38°C° 0 mm 3 mps 749 mmHg 18%
    13:00 +39°C° 0 mm 3 mps 748 mmHg 17%
    14:00 +41°C° 0 mm 4 mps 748 mmHg 16%
    15:00 +42°C° 0 mm 5 mps 748 mmHg 16%
    16:00 +40°C° 0 mm 5 mps 748 mmHg 21%
    17:00 +38°C° 0 mm 6 mps 747 mmHg 27%
    18:00 +35°C° 0 mm 6 mps 747 mmHg 32%
    19:00 +32°C° 0 mm 5 mps 748 mmHg 42%
    20:00 +28°C° 0 mm 4 mps 748 mmHg 51%
    21:00 +25°C° 0 mm 3 mps 749 mmHg 60%
    22:00 +24°C° 0 mm 3 mps 749 mmHg 67%
    23:00 +21°C° 0 mm 2 mps 749 mmHg 74%

    1 July, Monday

    Time Temperature Precipitation Wind Pressure Humidity
    00:00 +20°C° 0 mm 2 mps 749 mmHg 82%
    01:00 +20°C° 0 mm 1 mps 749 mmHg 84%
    02:00 +20°C° 0 mm 1 mps 749 mmHg 86%
    03:00 +17°C° 0 mm 0 mps 749 mmHg 88%
    04:00 +18°C° 0 mm 0 mps 749 mmHg 85%
    05:00 +18°C° 0 mm 0 mps 749 mmHg 83%
    06:00 +19°C° 0 mm 0 mps 749 mmHg 81%
    07:00 +24°C° 0 mm 1 mps 750 mmHg 69%
    08:00 +26°C° 0 mm 1 mps 750 mmHg 58%
    09:00 +29°C° 0 mm 2 mps 750 mmHg 46%
    10:00 +31°C° 0 mm 2 mps 749 mmHg 40%
    11:00 +34°C° 0 mm 3 mps 749 mmHg 34%
    12:00 +37°C° 0 mm 3 mps 749 mmHg 27%
    13:00 +37°C° 0 mm 4 mps 749 mmHg 27%
    14:00 +38°C° 0 mm 4 mps 748 mmHg 26%
    15:00 +40°C° 0 mm 5 mps 748 mmHg 25%
    16:00 +39°C° 0 mm 5 mps 747 mmHg 27%
    17:00 +37°C° 0 mm 5 mps 747 mmHg 29%
    18:00 +36°C° 0 mm 6 mps 747 mmHg 31%
    19:00 +33°C° 0 mm 5 mps 747 mmHg 42%
    20:00 +28°C° 0 mm 5 mps 747 mmHg 53%
    21:00 +25°C° 0 mm 4 mps 747 mmHg 64%
    22:00 +22°C° 0 mm 3 mps 748 mmHg 69%
    23:00 +21°C° 0 mm 3 mps 748 mmHg 74%

    2 July, Tuesday

    Time Temperature Precipitation Wind Pressure Humidity
    00:00 +20°C° 0 mm 2 mps 748 mmHg 79%
    01:00 +20°C° 0 mm 1 mps 747 mmHg 80%
    02:00 +20°C° 0 mm 1 mps 747 mmHg 82%
    03:00 +17°C° 0 mm 0 mps 747 mmHg 84%
    04:00 +18°C° 0 mm 0 mps 747 mmHg 82%
    05:00 +18°C° 0 mm 0 mps 747 mmHg 79%
    06:00 +18°C° 0 mm 0 mps 748 mmHg 77%
    07:00 +23°C° 0 mm 1 mps 748 mmHg 66%
    08:00 +26°C° 0 mm 1 mps 748 mmHg 56%
    09:00 +29°C° 0 mm 2 mps 748 mmHg 45%
    10:00 +31°C° 0 mm 2 mps 747 mmHg 38%
    11:00 +35°C° 0 mm 3 mps 747 mmHg 32%
    12:00 +37°C° 0 mm 3 mps 747 mmHg 25%
    13:00 +38°C° 0 mm 3 mps 747 mmHg 23%
    14:00 +40°C° 0 mm 4 mps 746 mmHg 22%
    15:00 +41°C° 0 mm 4 mps 746 mmHg 20%
    16:00 +40°C° 0 mm 5 mps 745 mmHg 22%
    17:00 +39°C° 0 mm 6 mps 745 mmHg 25%
    18:00 +36°C° 0 mm 7 mps 745 mmHg 28%
    19:00 +33°C° 0 mm 6 mps 745 mmHg 35%
    20:00 +28°C° 0 mm 5 mps 745 mmHg 43%
    21:00 +25°C° 0 mm 4 mps 745 mmHg 51%
    22:00 +24°C° 0 mm 3 mps 746 mmHg 56%
    23:00 +22°C° 0 mm 3 mps 746 mmHg 60%
    Show more